Year,Month,Day,Hour,Minute,Value (Times are PST for insolation in W/m^2)
2009,09,08,00,00,0.00
2009,09,08,00,01,0.00
2009,09,08,00,02,0.00
2009,09,08,00,03,0.00
2009,09,08,00,04,0.00
2009,09,08,00,05,0.00
2009,09,08,00,06,0.00
2009,09,08,00,07,0.00
2009,09,08,00,08,0.00
2009,09,08,00,09,0.00
2009,09,08,00,10,0.00
2009,09,08,00,11,0.00
2009,09,08,00,12,0.00
2009,09,08,00,13,0.00
2009,09,08,00,14,0.00
2009,09,08,00,15,0.00
2009,09,08,00,16,0.00
2009,09,08,00,17,0.00
2009,09,08,00,18,0.00
2009,09,08,00,19,0.00
2009,09,08,00,20,0.00
2009,09,08,00,21,0.00
2009,09,08,00,22,0.00
2009,09,08,00,23,0.00
2009,09,08,00,24,0.00
2009,09,08,00,25,0.00
2009,09,08,00,26,0.00
2009,09,08,00,27,0.00
2009,09,08,00,28,0.00
2009,09,08,00,29,0.00
2009,09,08,00,30,0.00
2009,09,08,00,31,0.00
2009,09,08,00,32,0.00
2009,09,08,00,33,0.00
2009,09,08,00,34,0.00
2009,09,08,00,35,0.00
2009,09,08,00,36,0.00
2009,09,08,00,37,0.00
2009,09,08,00,38,0.00
2009,09,08,00,39,0.00
2009,09,08,00,40,0.00
2009,09,08,00,41,0.00
2009,09,08,00,42,0.00
2009,09,08,00,43,0.00
2009,09,08,00,44,0.00
2009,09,08,00,45,0.00
2009,09,08,00,46,0.00
2009,09,08,00,47,0.00
2009,09,08,00,48,0.00
2009,09,08,00,49,0.00
2009,09,08,00,50,0.00
2009,09,08,00,51,0.00
2009,09,08,00,52,0.00
2009,09,08,00,53,0.00
2009,09,08,00,54,0.00
2009,09,08,00,55,0.00
2009,09,08,00,56,0.00
2009,09,08,00,57,0.00
2009,09,08,00,58,0.00
2009,09,08,00,59,0.00
2009,09,08,01,00,0.00
2009,09,08,01,01,0.00
2009,09,08,01,02,0.00
2009,09,08,01,03,0.00
2009,09,08,01,04,0.00
2009,09,08,01,05,0.00
2009,09,08,01,06,0.00
2009,09,08,01,07,0.00
2009,09,08,01,08,0.00
2009,09,08,01,09,0.00
2009,09,08,01,10,0.00
2009,09,08,01,11,0.00
2009,09,08,01,12,0.00
2009,09,08,01,13,0.00
2009,09,08,01,14,0.00
2009,09,08,01,15,0.00
2009,09,08,01,16,0.00
2009,09,08,01,17,0.00
2009,09,08,01,18,0.00
2009,09,08,01,19,0.00
2009,09,08,01,20,0.00
2009,09,08,01,21,0.00
2009,09,08,01,22,0.00
2009,09,08,01,23,0.00
2009,09,08,01,24,0.00
2009,09,08,01,25,0.00
2009,09,08,01,26,0.00
2009,09,08,01,27,0.00
2009,09,08,01,28,0.00
2009,09,08,01,29,0.00
2009,09,08,01,30,0.00
2009,09,08,01,31,0.00
2009,09,08,01,32,0.00
2009,09,08,01,33,0.00
2009,09,08,01,34,0.00
2009,09,08,01,35,0.00
2009,09,08,01,36,0.00
2009,09,08,01,37,0.00
2009,09,08,01,38,0.00
2009,09,08,01,39,0.00
2009,09,08,01,40,0.00
2009,09,08,01,41,0.00
2009,09,08,01,42,0.00
2009,09,08,01,43,0.00
2009,09,08,01,44,0.00
2009,09,08,01,45,0.00
2009,09,08,01,46,0.00
2009,09,08,01,47,0.00
2009,09,08,01,48,0.00
2009,09,08,01,49,0.00
2009,09,08,01,50,0.00
2009,09,08,01,51,0.00
2009,09,08,01,52,0.00
2009,09,08,01,53,0.00
2009,09,08,01,54,0.00
2009,09,08,01,55,0.00
2009,09,08,01,56,0.00
2009,09,08,01,57,0.00
2009,09,08,01,58,0.00
2009,09,08,01,59,0.00
2009,09,08,02,00,0.00
2009,09,08,02,01,0.00
2009,09,08,02,02,0.00
2009,09,08,02,03,0.00
2009,09,08,02,04,0.00
2009,09,08,02,05,0.00
2009,09,08,02,06,0.00
2009,09,08,02,07,0.00
2009,09,08,02,08,0.00
2009,09,08,02,09,0.00
2009,09,08,02,10,0.00
2009,09,08,02,11,0.00
2009,09,08,02,12,0.00
2009,09,08,02,13,0.00
2009,09,08,02,14,0.00
2009,09,08,02,15,0.00
2009,09,08,02,16,0.00
2009,09,08,02,17,0.00
2009,09,08,02,18,0.00
2009,09,08,02,19,0.00
2009,09,08,02,20,0.00
2009,09,08,02,21,0.00
2009,09,08,02,22,0.00
2009,09,08,02,23,0.00
2009,09,08,02,24,0.00
2009,09,08,02,25,0.00
2009,09,08,02,26,0.00
2009,09,08,02,27,0.00
2009,09,08,02,28,0.00
2009,09,08,02,29,0.00
2009,09,08,02,30,0.00
2009,09,08,02,31,0.00
2009,09,08,02,32,0.00
2009,09,08,02,33,0.00
2009,09,08,02,34,0.00
2009,09,08,02,35,0.00
2009,09,08,02,36,0.00
2009,09,08,02,37,0.00
2009,09,08,02,38,0.00
2009,09,08,02,39,0.00
2009,09,08,02,40,0.00
2009,09,08,02,41,0.00
2009,09,08,02,42,0.00
2009,09,08,02,43,0.00
2009,09,08,02,44,0.00
2009,09,08,02,45,0.00
2009,09,08,02,46,0.00
2009,09,08,02,47,0.00
2009,09,08,02,48,0.00
2009,09,08,02,49,0.00
2009,09,08,02,50,0.00
2009,09,08,02,51,0.00
2009,09,08,02,52,0.00
2009,09,08,02,53,0.00
2009,09,08,02,54,0.00
2009,09,08,02,55,0.00
2009,09,08,02,56,0.00
2009,09,08,02,57,0.00
2009,09,08,02,58,0.00
2009,09,08,02,59,0.00
2009,09,08,03,00,0.00
2009,09,08,03,01,0.00
2009,09,08,03,02,0.00
2009,09,08,03,03,0.00
2009,09,08,03,04,0.00
2009,09,08,03,05,0.00
2009,09,08,03,06,0.00
2009,09,08,03,07,0.00
2009,09,08,03,08,0.00
2009,09,08,03,09,0.00
2009,09,08,03,10,0.00
2009,09,08,03,11,0.00
2009,09,08,03,12,0.00
2009,09,08,03,13,0.00
2009,09,08,03,14,0.00
2009,09,08,03,15,0.00
2009,09,08,03,16,0.00
2009,09,08,03,17,0.00
2009,09,08,03,18,0.00
2009,09,08,03,19,0.00
2009,09,08,03,20,0.00
2009,09,08,03,21,0.00
2009,09,08,03,22,0.00
2009,09,08,03,23,0.00
2009,09,08,03,24,0.00
2009,09,08,03,25,0.00
2009,09,08,03,26,0.00
2009,09,08,03,27,0.00
2009,09,08,03,28,0.00
2009,09,08,03,29,0.00
2009,09,08,03,30,0.00
2009,09,08,03,31,0.00
2009,09,08,03,32,0.00
2009,09,08,03,33,0.00
2009,09,08,03,34,0.00
2009,09,08,03,35,0.00
2009,09,08,03,36,0.00
2009,09,08,03,37,0.00
2009,09,08,03,38,0.00
2009,09,08,03,39,0.00
2009,09,08,03,40,0.00
2009,09,08,03,41,0.00
2009,09,08,03,42,0.00
2009,09,08,03,43,0.00
2009,09,08,03,44,0.00
2009,09,08,03,45,0.00
2009,09,08,03,46,0.00
2009,09,08,03,47,0.00
2009,09,08,03,48,0.00
2009,09,08,03,49,0.00
2009,09,08,03,50,0.00
2009,09,08,03,51,0.00
2009,09,08,03,52,0.00
2009,09,08,03,53,0.00
2009,09,08,03,54,0.00
2009,09,08,03,55,0.00
2009,09,08,03,56,0.00
2009,09,08,03,57,0.00
2009,09,08,03,58,0.00
2009,09,08,03,59,0.00
2009,09,08,04,00,0.00
2009,09,08,04,01,0.00
2009,09,08,04,02,0.00
2009,09,08,04,03,0.00
2009,09,08,04,05,0.00
2009,09,08,04,06,0.00
2009,09,08,04,07,0.00
2009,09,08,04,08,0.00
2009,09,08,04,09,0.00
2009,09,08,04,10,0.00
2009,09,08,04,11,0.00
2009,09,08,04,12,0.00
2009,09,08,04,13,0.00
2009,09,08,04,14,0.00
2009,09,08,04,15,0.00
2009,09,08,04,16,0.00
2009,09,08,04,17,0.00
2009,09,08,04,18,0.00
2009,09,08,04,19,0.00
2009,09,08,04,20,0.00
2009,09,08,04,21,0.00
2009,09,08,04,22,0.00
2009,09,08,04,23,0.00
2009,09,08,04,24,0.00
2009,09,08,04,25,0.00
2009,09,08,04,26,0.00
2009,09,08,04,27,0.00
2009,09,08,04,28,0.00
2009,09,08,04,29,0.00
2009,09,08,04,30,0.00
2009,09,08,04,31,0.00
2009,09,08,04,32,0.00
2009,09,08,04,33,0.00
2009,09,08,04,34,0.00
2009,09,08,04,35,0.00
2009,09,08,04,36,0.00
2009,09,08,04,37,0.00
2009,09,08,04,38,0.00
2009,09,08,04,39,0.00
2009,09,08,04,40,0.00
2009,09,08,04,41,0.00
2009,09,08,04,42,0.00
2009,09,08,04,43,0.00
2009,09,08,04,44,0.00
2009,09,08,04,45,0.00
2009,09,08,04,46,0.00
2009,09,08,04,47,0.00
2009,09,08,04,48,0.00
2009,09,08,04,49,0.00
2009,09,08,04,50,0.00
2009,09,08,04,51,0.00
2009,09,08,04,52,0.00
2009,09,08,04,53,0.00
2009,09,08,04,54,0.00
2009,09,08,04,55,0.00
2009,09,08,04,56,0.00
2009,09,08,04,57,0.00
2009,09,08,04,58,0.00
2009,09,08,04,59,0.00
2009,09,08,05,00,0.00
2009,09,08,05,01,0.00
2009,09,08,05,02,0.00
2009,09,08,05,03,0.00
2009,09,08,05,04,0.00
2009,09,08,05,05,0.00
2009,09,08,05,06,0.00
2009,09,08,05,07,0.00
2009,09,08,05,08,0.00
2009,09,08,05,09,0.00
2009,09,08,05,10,0.00
2009,09,08,05,11,0.00
2009,09,08,05,12,0.00
2009,09,08,05,13,0.00
2009,09,08,05,14,0.00
2009,09,08,05,15,0.00
2009,09,08,05,16,0.00
2009,09,08,05,17,0.00
2009,09,08,05,18,0.00
2009,09,08,05,19,0.00
2009,09,08,05,20,0.00
2009,09,08,05,21,0.00
2009,09,08,05,22,0.00
2009,09,08,05,23,0.00
2009,09,08,05,24,0.00
2009,09,08,05,25,0.00
2009,09,08,05,26,0.00
2009,09,08,05,27,0.00
2009,09,08,05,28,0.00
2009,09,08,05,29,0.00
2009,09,08,05,30,0.00
2009,09,08,05,31,0.00
2009,09,08,05,32,0.00
2009,09,08,05,33,0.00
2009,09,08,05,34,0.00
2009,09,08,05,35,0.00
2009,09,08,05,36,0.00
2009,09,08,05,37,0.00
2009,09,08,05,38,0.00
2009,09,08,05,39,0.00
2009,09,08,05,40,0.00
2009,09,08,05,41,0.00
2009,09,08,05,42,0.00
2009,09,08,05,43,0.00
2009,09,08,05,44,0.00
2009,09,08,05,45,0.00
2009,09,08,05,46,0.00
2009,09,08,05,47,0.00
2009,09,08,05,48,0.00
2009,09,08,05,49,0.00
2009,09,08,05,50,0.00
2009,09,08,05,51,0.00
2009,09,08,05,52,0.00
2009,09,08,05,53,0.00
2009,09,08,05,54,0.00
2009,09,08,05,55,0.00
2009,09,08,05,56,0.00
2009,09,08,05,57,0.00
2009,09,08,05,58,0.00
2009,09,08,05,59,0.00
2009,09,08,06,00,0.00
2009,09,08,06,01,0.00
2009,09,08,06,02,0.00
2009,09,08,06,03,0.00
2009,09,08,06,04,0.00
2009,09,08,06,05,0.00
2009,09,08,06,06,0.00
2009,09,08,06,07,0.00
2009,09,08,06,08,0.00
2009,09,08,06,09,0.00
2009,09,08,06,10,0.00
2009,09,08,06,11,0.00
2009,09,08,06,12,0.00
2009,09,08,06,13,0.00
2009,09,08,06,14,0.00
2009,09,08,06,15,0.00
2009,09,08,06,16,0.00
2009,09,08,06,17,0.00
2009,09,08,06,18,0.00
2009,09,08,06,19,0.00
2009,09,08,06,20,0.00
2009,09,08,06,21,0.00
2009,09,08,06,22,0.00
2009,09,08,06,23,0.00
2009,09,08,06,24,0.00
2009,09,08,06,25,0.00
2009,09,08,06,26,0.00
2009,09,08,06,27,0.00
2009,09,08,06,28,0.00
2009,09,08,06,29,0.00
2009,09,08,06,30,0.00
2009,09,08,06,31,0.00
2009,09,08,06,32,0.00
2009,09,08,06,33,0.00
2009,09,08,06,34,0.00
2009,09,08,06,35,0.00
2009,09,08,06,36,0.00
2009,09,08,06,37,0.00
2009,09,08,06,38,0.00
2009,09,08,06,39,4.70
2009,09,08,06,40,5.00
2009,09,08,06,41,5.00
2009,09,08,06,42,7.00
2009,09,08,06,43,7.00
2009,09,08,06,44,7.00
2009,09,08,06,45,7.00
2009,09,08,06,46,6.60
2009,09,08,06,47,5.00
2009,09,08,06,48,5.00
2009,09,08,06,49,5.00
2009,09,08,06,50,5.00
2009,09,08,06,51,5.00
2009,09,08,06,52,5.00
2009,09,08,06,53,5.00
2009,09,08,06,54,6.10
2009,09,08,06,55,7.00
2009,09,08,06,56,8.30
2009,09,08,06,57,9.00
2009,09,08,06,58,10.60
2009,09,08,06,59,11.00
2009,09,08,07,00,11.00
2009,09,08,07,01,11.90
2009,09,08,07,02,12.00
2009,09,08,07,03,14.00
2009,09,08,07,04,16.00
2009,09,08,07,05,18.00
2009,09,08,07,06,19.00
2009,09,08,07,07,19.20
2009,09,08,07,08,21.70
2009,09,08,07,09,25.20
2009,09,08,07,10,26.00
2009,09,08,07,11,26.00
2009,09,08,07,12,26.70
2009,09,08,07,13,28.80
2009,09,08,07,14,31.20
2009,09,08,07,15,33.80
2009,09,08,07,16,36.00
2009,09,08,07,17,38.20
2009,09,08,07,18,39.00
2009,09,08,07,19,39.70
2009,09,08,07,20,41.40
2009,09,08,07,21,42.00
2009,09,08,07,22,43.60
2009,09,08,07,23,45.50
2009,09,08,07,24,46.00
2009,09,08,07,25,46.90
2009,09,08,07,26,47.00
2009,09,08,07,27,49.00
2009,09,08,07,28,49.00
2009,09,08,07,29,49.00
2009,09,08,07,30,49.00
2009,09,08,07,31,49.00
2009,09,08,07,32,48.60
2009,09,08,07,33,47.00
2009,09,08,07,34,46.70
2009,09,08,07,35,45.30
2009,09,08,07,36,44.00
2009,09,08,07,37,44.00
2009,09,08,07,38,44.00
2009,09,08,07,39,45.10
2009,09,08,07,40,46.60
2009,09,08,07,41,51.30
2009,09,08,07,42,54.00
2009,09,08,07,43,54.00
2009,09,08,07,44,54.00
2009,09,08,07,45,51.70
2009,09,08,07,46,57.90
2009,09,08,07,47,56.40
2009,09,08,07,48,61.70
2009,09,08,07,49,69.00
2009,09,08,07,50,77.00
2009,09,08,07,51,72.00
2009,09,08,07,52,64.90
2009,09,08,07,53,63.00
2009,09,08,07,54,63.30
2009,09,08,07,55,66.60
2009,09,08,07,56,74.40
2009,09,08,07,57,88.80
2009,09,08,07,58,116.70
2009,09,08,07,59,150.20
2009,09,08,08,00,173.00
2009,09,08,08,01,187.00
2009,09,08,08,02,194.50
2009,09,08,08,03,208.40
2009,09,08,08,04,222.80
2009,09,08,08,05,232.30
2009,09,08,08,06,242.20
2009,09,08,08,07,253.90
2009,09,08,08,08,262.50
2009,09,08,08,09,268.20
2009,09,08,08,10,271.70
2009,09,08,08,11,273.90
2009,09,08,08,12,272.00
2009,09,08,08,13,279.00
2009,09,08,08,14,287.30
2009,09,08,08,15,292.30
2009,09,08,08,16,297.60
2009,09,08,08,17,298.50
2009,09,08,08,18,261.90
2009,09,08,08,19,188.30
2009,09,08,08,20,165.90
2009,09,08,08,21,155.00
2009,09,08,08,22,155.00
2009,09,08,08,23,155.40
2009,09,08,08,24,156.00
2009,09,08,08,25,159.30
2009,09,08,08,26,160.90
2009,09,08,08,27,161.20
2009,09,08,08,28,170.00
2009,09,08,08,29,168.90
2009,09,08,08,30,168.40
2009,09,08,08,31,209.40
2009,09,08,08,32,187.70
2009,09,08,08,33,193.50
2009,09,08,08,34,210.10
2009,09,08,08,35,206.00
2009,09,08,08,36,178.00
2009,09,08,08,37,179.00
2009,09,08,08,38,179.10
2009,09,08,08,39,181.00
2009,09,08,08,40,182.80
2009,09,08,08,41,193.60
2009,09,08,08,42,217.30
2009,09,08,08,43,265.00
2009,09,08,08,44,281.00
2009,09,08,08,45,313.00
2009,09,08,08,46,264.20
2009,09,08,08,47,177.50
2009,09,08,08,48,173.60
2009,09,08,08,49,185.40
2009,09,08,08,50,180.70
2009,09,08,08,51,192.70
2009,09,08,08,52,200.00
2009,09,08,08,53,295.30
2009,09,08,08,54,335.10
2009,09,08,08,55,326.80
2009,09,08,08,56,329.40
2009,09,08,08,57,329.10
2009,09,08,08,58,329.90
2009,09,08,08,59,323.00
2009,09,08,09,00,317.80
2009,09,08,09,01,308.40
2009,09,08,09,02,315.30
2009,09,08,09,03,316.90
2009,09,08,09,04,317.00
2009,09,08,09,05,339.10
2009,09,08,09,06,344.20
2009,09,08,09,07,348.60
2009,09,08,09,08,351.90
2009,09,08,09,09,355.00
2009,09,08,09,10,351.50
2009,09,08,09,11,349.10
2009,09,08,09,12,358.60
2009,09,08,09,13,364.00
2009,09,08,09,14,365.30
2009,09,08,09,15,369.60
2009,09,08,09,16,372.40
2009,09,08,09,17,379.20
2009,09,08,09,18,386.00
2009,09,08,09,19,389.70
2009,09,08,09,20,393.80
2009,09,08,09,21,399.00
2009,09,08,09,22,403.00
2009,09,08,09,23,408.10
2009,09,08,09,24,411.10
2009,09,08,09,25,413.40
2009,09,08,09,26,417.50
2009,09,08,09,27,419.20
2009,09,08,09,28,415.80
2009,09,08,09,29,420.50
2009,09,08,09,30,428.30
2009,09,08,09,31,431.40
2009,09,08,09,32,431.60
2009,09,08,09,33,429.20
2009,09,08,09,34,423.30
2009,09,08,09,35,414.80
2009,09,08,09,36,422.00
2009,09,08,09,37,430.40
2009,09,08,09,38,425.90
2009,09,08,09,39,410.00
2009,09,08,09,40,423.90
2009,09,08,09,41,384.40
2009,09,08,09,42,390.20
2009,09,08,09,43,378.80
2009,09,08,09,44,371.00
2009,09,08,09,45,390.00
2009,09,08,09,46,411.00
2009,09,08,09,47,435.60
2009,09,08,09,48,431.20
2009,09,08,09,49,425.70
2009,09,08,09,50,428.60
2009,09,08,09,51,429.70
2009,09,08,09,52,440.90
2009,09,08,09,53,449.00
2009,09,08,09,54,455.10
2009,09,08,09,55,452.80
2009,09,08,09,56,456.50
2009,09,08,09,57,459.00
2009,09,08,09,58,460.70
2009,09,08,09,59,458.90
2009,09,08,10,00,452.30
2009,09,08,10,01,451.40
2009,09,08,10,02,459.00
2009,09,08,10,03,468.80
2009,09,08,10,04,476.80
2009,09,08,10,05,476.20
2009,09,08,10,06,475.10
2009,09,08,10,07,480.00
2009,09,08,10,08,484.50
2009,09,08,10,09,488.80
2009,09,08,10,10,496.90
2009,09,08,10,11,495.60
2009,09,08,10,12,493.10
2009,09,08,10,13,499.00
2009,09,08,10,14,500.10
2009,09,08,10,15,499.40
2009,09,08,10,16,491.30
2009,09,08,10,17,495.20
2009,09,08,10,18,497.90
2009,09,08,10,19,496.50
2009,09,08,10,20,499.00
2009,09,08,10,21,504.00
2009,09,08,10,22,492.00
2009,09,08,10,23,480.30
2009,09,08,10,24,491.00
2009,09,08,10,25,503.50
2009,09,08,10,26,509.20
2009,09,08,10,27,503.20
2009,09,08,10,28,482.40
2009,09,08,10,29,491.30
2009,09,08,10,30,492.00
2009,09,08,10,31,480.00
2009,09,08,10,32,485.00
2009,09,08,10,33,501.80
2009,09,08,10,34,462.00
2009,09,08,10,35,491.00
2009,09,08,10,36,503.00
2009,09,08,10,37,501.70
2009,09,08,10,38,499.50
2009,09,08,10,39,506.70
2009,09,08,10,40,501.80
2009,09,08,10,41,500.90
2009,09,08,10,42,528.60
2009,09,08,10,43,554.40
2009,09,08,10,44,541.60
2009,09,08,10,45,527.80
2009,09,08,10,46,532.10
2009,09,08,10,47,521.50
2009,09,08,10,48,519.30
2009,09,08,10,49,509.10
2009,09,08,10,50,511.00
2009,09,08,10,51,492.40
2009,09,08,10,52,491.90
2009,09,08,10,53,510.00
2009,09,08,10,54,543.00
2009,09,08,10,55,519.70
2009,09,08,10,56,515.00
2009,09,08,10,57,515.00
2009,09,08,10,58,499.50
2009,09,08,10,59,422.00
2009,09,08,11,00,458.10
2009,09,08,11,01,552.60
2009,09,08,11,02,563.30
2009,09,08,11,03,586.70
2009,09,08,11,04,600.20
2009,09,08,11,05,612.70
2009,09,08,11,06,615.50
2009,09,08,11,07,608.30
2009,09,08,11,08,601.10
2009,09,08,11,09,600.00
2009,09,08,11,10,599.80
2009,09,08,11,11,590.30
2009,09,08,11,12,578.60
2009,09,08,11,13,582.50
2009,09,08,11,14,558.20
2009,09,08,11,15,546.50
2009,09,08,11,16,546.90
2009,09,08,11,17,551.50
2009,09,08,11,18,573.00
2009,09,08,11,19,591.00
2009,09,08,11,20,577.30
2009,09,08,11,21,452.00
2009,09,08,11,22,434.10
2009,09,08,11,23,400.20
2009,09,08,11,24,366.00
2009,09,08,11,25,393.30
2009,09,08,11,26,478.70
2009,09,08,11,27,537.90
2009,09,08,11,28,544.30
2009,09,08,11,29,545.00
2009,09,08,11,30,561.90
2009,09,08,11,31,510.90
2009,09,08,11,32,484.70
2009,09,08,11,33,444.30
2009,09,08,11,34,394.20
2009,09,08,11,35,393.40
2009,09,08,11,36,394.50
2009,09,08,11,37,387.80
2009,09,08,11,38,385.10
2009,09,08,11,39,383.10
2009,09,08,11,40,387.00
2009,09,08,11,41,396.00
2009,09,08,11,42,415.70
2009,09,08,11,43,423.60
2009,09,08,11,44,398.90
2009,09,08,11,45,413.50
2009,09,08,11,46,411.20
2009,09,08,11,47,419.40
2009,09,08,11,48,420.20
2009,09,08,11,49,424.40
2009,09,08,11,50,412.40
2009,09,08,11,51,378.70
2009,09,08,11,52,359.50
2009,09,08,11,53,358.10
2009,09,08,11,54,360.80
2009,09,08,11,55,363.30
2009,09,08,11,56,364.00
2009,09,08,11,57,362.60
2009,09,08,11,58,359.70
2009,09,08,11,59,352.10
2009,09,08,12,00,343.80
2009,09,08,12,01,339.20
2009,09,08,12,02,339.00
2009,09,08,12,03,345.00
2009,09,08,12,04,355.00
2009,09,08,12,05,366.40
2009,09,08,12,06,373.80
2009,09,08,12,07,383.10
2009,09,08,12,08,399.90
2009,09,08,12,09,402.30
2009,09,08,12,10,423.90
2009,09,08,12,11,452.80
2009,09,08,12,12,486.90
2009,09,08,12,13,498.60
2009,09,08,12,14,497.50
2009,09,08,12,15,485.00
2009,09,08,12,16,480.30
2009,09,08,12,17,447.80
2009,09,08,12,18,447.70
2009,09,08,12,19,443.40
2009,09,08,12,20,439.00
2009,09,08,12,21,439.00
2009,09,08,12,22,465.70
2009,09,08,12,23,462.10
2009,09,08,12,24,445.80
2009,09,08,12,25,468.00
2009,09,08,12,26,550.00
2009,09,08,12,27,550.00
2009,09,08,12,28,549.50
2009,09,08,12,29,538.80
2009,09,08,12,30,524.20
2009,09,08,12,31,542.10
2009,09,08,12,32,547.10
2009,09,08,12,33,607.90
2009,09,08,12,34,649.00
2009,09,08,12,35,688.40
2009,09,08,12,36,727.20
2009,09,08,12,37,683.60
2009,09,08,12,38,675.70
2009,09,08,12,39,624.00
2009,09,08,12,40,539.90
2009,09,08,12,41,494.30
2009,09,08,12,42,501.60
2009,09,08,12,43,510.70
2009,09,08,12,44,489.40
2009,09,08,12,45,483.00
2009,09,08,12,46,437.70
2009,09,08,12,47,411.20
2009,09,08,12,48,390.00
2009,09,08,12,49,357.00
2009,09,08,12,50,355.90
2009,09,08,12,51,339.10
2009,09,08,12,52,352.10
2009,09,08,12,53,390.50
2009,09,08,12,54,405.70
2009,09,08,12,55,400.10
2009,09,08,12,56,411.30
2009,09,08,12,57,442.80
2009,09,08,12,58,483.10
2009,09,08,12,59,478.30
2009,09,08,13,00,454.00
2009,09,08,13,01,442.00
2009,09,08,13,02,445.60
2009,09,08,13,03,435.30
2009,09,08,13,04,432.30
2009,09,08,13,05,434.00
2009,09,08,13,06,423.90
2009,09,08,13,07,409.10
2009,09,08,13,08,406.00
2009,09,08,13,09,407.80
2009,09,08,13,10,410.80
2009,09,08,13,11,424.30
2009,09,08,13,12,431.00
2009,09,08,13,13,438.00
2009,09,08,13,14,435.20
2009,09,08,13,15,459.10
2009,09,08,13,16,479.50
2009,09,08,13,17,499.20
2009,09,08,13,18,507.60
2009,09,08,13,19,499.00
2009,09,08,13,20,502.00
2009,09,08,13,21,509.60
2009,09,08,13,22,515.40
2009,09,08,13,23,519.50
2009,09,08,13,24,511.50
2009,09,08,13,25,505.10
2009,09,08,13,26,499.90
2009,09,08,13,27,496.00
2009,09,08,13,28,482.30
2009,09,08,13,29,471.50
2009,09,08,13,30,472.10
2009,09,08,13,31,474.70
2009,09,08,13,32,477.70
2009,09,08,13,33,493.30
2009,09,08,13,34,503.60
2009,09,08,13,35,513.00
2009,09,08,13,36,497.00
2009,09,08,13,37,486.40
2009,09,08,13,38,476.20
2009,09,08,13,39,478.80
2009,09,08,13,40,483.70
2009,09,08,13,41,483.80
2009,09,08,13,42,473.70
2009,09,08,13,43,477.00
2009,09,08,13,44,491.90
2009,09,08,13,45,498.80
2009,09,08,13,46,508.60
2009,09,08,13,47,518.10
2009,09,08,13,48,516.80
2009,09,08,13,49,510.70
2009,09,08,13,50,531.30
2009,09,08,13,51,543.00
2009,09,08,13,52,544.50
2009,09,08,13,53,543.40
2009,09,08,13,54,537.70
2009,09,08,13,55,536.00
2009,09,08,13,56,531.30
2009,09,08,13,57,541.40
2009,09,08,13,58,540.00
2009,09,08,13,59,525.50
2009,09,08,14,00,488.10
2009,09,08,14,01,531.00
2009,09,08,14,02,530.30
2009,09,08,14,03,524.50
2009,09,08,14,04,513.60
2009,09,08,14,05,515.90
2009,09,08,14,06,507.30
2009,09,08,14,07,508.70
2009,09,08,14,08,513.90
2009,09,08,14,09,504.50
2009,09,08,14,10,496.50
2009,09,08,14,11,488.00
2009,09,08,14,12,471.40
2009,09,08,14,13,458.80
2009,09,08,14,14,441.70
2009,09,08,14,15,438.30
2009,09,08,14,16,439.00
2009,09,08,14,17,421.50
2009,09,08,14,18,426.80
2009,09,08,14,19,440.90
2009,09,08,14,20,445.00
2009,09,08,14,21,445.00
2009,09,08,14,22,473.50
2009,09,08,14,23,485.20
2009,09,08,14,24,507.90
2009,09,08,14,25,548.30
2009,09,08,14,26,558.20
2009,09,08,14,27,554.70
2009,09,08,14,28,548.30
2009,09,08,14,29,532.70
2009,09,08,14,30,526.40
2009,09,08,14,31,534.10
2009,09,08,14,32,548.50
2009,09,08,14,33,552.00
2009,09,08,14,34,554.10
2009,09,08,14,35,560.70
2009,09,08,14,36,561.70
2009,09,08,14,37,561.00
2009,09,08,14,38,548.60
2009,09,08,14,39,538.00
2009,09,08,14,40,516.00
2009,09,08,14,41,481.80
2009,09,08,14,42,451.50
2009,09,08,14,43,425.00
2009,09,08,14,44,424.00
2009,09,08,14,45,420.00
2009,09,08,14,46,421.60
2009,09,08,14,47,410.70
2009,09,08,14,48,391.20
2009,09,08,14,49,384.70
2009,09,08,14,50,376.00
2009,09,08,14,51,371.00
2009,09,08,14,52,351.20
2009,09,08,14,53,335.60
2009,09,08,14,54,322.60
2009,09,08,14,55,326.00
2009,09,08,14,56,326.00
2009,09,08,14,57,322.60
2009,09,08,14,58,325.40
2009,09,08,14,59,307.80
2009,09,08,15,00,297.60
2009,09,08,15,01,297.00
2009,09,08,15,02,297.00
2009,09,08,15,03,297.00
2009,09,08,15,04,295.20
2009,09,08,15,05,290.30
2009,09,08,15,06,288.10
2009,09,08,15,07,281.00
2009,09,08,15,08,274.00
2009,09,08,15,09,270.80
2009,09,08,15,10,266.80
2009,09,08,15,11,264.80
2009,09,08,15,12,264.20
2009,09,08,15,13,266.00
2009,09,08,15,14,269.60
2009,09,08,15,15,272.70
2009,09,08,15,16,277.00
2009,09,08,15,17,282.20
2009,09,08,15,18,287.40
2009,09,08,15,19,289.00
2009,09,08,15,20,291.00
2009,09,08,15,21,284.10
2009,09,08,15,22,278.30
2009,09,08,15,23,276.70
2009,09,08,15,24,270.90
2009,09,08,15,25,265.10
2009,09,08,15,26,264.80
2009,09,08,15,27,268.60
2009,09,08,15,28,267.30
2009,09,08,15,29,267.00
2009,09,08,15,30,271.00
2009,09,08,15,31,272.00
2009,09,08,15,32,276.10
2009,09,08,15,33,278.30
2009,09,08,15,34,281.30
2009,09,08,15,35,283.00
2009,09,08,15,36,284.90
2009,09,08,15,37,291.30
2009,09,08,15,38,294.30
2009,09,08,15,39,294.60
2009,09,08,15,40,291.50
2009,09,08,15,41,291.00
2009,09,08,15,42,295.60
2009,09,08,15,43,299.80
2009,09,08,15,44,297.70
2009,09,08,15,45,296.20
2009,09,08,15,46,295.80
2009,09,08,15,47,292.80
2009,09,08,15,48,288.10
2009,09,08,15,49,272.00
2009,09,08,15,50,261.00
2009,09,08,15,51,253.40
2009,09,08,15,52,244.00
2009,09,08,15,53,237.00
2009,09,08,15,54,232.00
2009,09,08,15,55,228.70
2009,09,08,15,56,222.70
2009,09,08,15,57,219.40
2009,09,08,15,58,215.60
2009,09,08,15,59,213.80
2009,09,08,16,00,213.00
2009,09,08,16,01,213.00
2009,09,08,16,02,213.30
2009,09,08,16,03,214.80
2009,09,08,16,04,216.00
2009,09,08,16,05,216.00
2009,09,08,16,06,216.00
2009,09,08,16,07,216.00
2009,09,08,16,08,216.00
2009,09,08,16,09,216.00
2009,09,08,16,10,216.00
2009,09,08,16,11,217.60
2009,09,08,16,12,220.50
2009,09,08,16,13,221.00
2009,09,08,16,14,222.90
2009,09,08,16,15,221.00
2009,09,08,16,16,223.00
2009,09,08,16,17,222.90
2009,09,08,16,18,221.00
2009,09,08,16,19,220.70
2009,09,08,16,20,217.80
2009,09,08,16,21,215.40
2009,09,08,16,22,211.90
2009,09,08,16,23,208.20
2009,09,08,16,24,204.00
2009,09,08,16,25,198.80
2009,09,08,16,26,194.90
2009,09,08,16,27,190.20
2009,09,08,16,28,185.50
2009,09,08,16,29,180.90
2009,09,08,16,30,177.10
2009,09,08,16,31,173.30
2009,09,08,16,32,171.30
2009,09,08,16,33,169.70
2009,09,08,16,34,167.60
2009,09,08,16,35,165.30
2009,09,08,16,36,163.20
2009,09,08,16,37,162.10
2009,09,08,16,38,160.10
2009,09,08,16,39,158.00
2009,09,08,16,40,155.00
2009,09,08,16,41,152.90
2009,09,08,16,42,151.00
2009,09,08,16,43,150.70
2009,09,08,16,44,149.00
2009,09,08,16,45,148.80
2009,09,08,16,46,147.40
2009,09,08,16,47,144.70
2009,09,08,16,48,141.70
2009,09,08,16,49,139.30
2009,09,08,16,50,136.10
2009,09,08,16,51,133.40
2009,09,08,16,52,129.80
2009,09,08,16,53,126.20
2009,09,08,16,54,122.30
2009,09,08,16,55,117.40
2009,09,08,16,56,113.90
2009,09,08,16,57,108.30
2009,09,08,16,58,104.50
2009,09,08,16,59,99.20
2009,09,08,17,00,95.20
2009,09,08,17,01,91.20
2009,09,08,17,02,88.00
2009,09,08,17,03,85.90
2009,09,08,17,04,84.00
2009,09,08,17,05,84.00
2009,09,08,17,06,83.80
2009,09,08,17,07,83.00
2009,09,08,17,08,82.60
2009,09,08,17,09,80.40
2009,09,08,17,10,78.30
2009,09,08,17,11,76.60
2009,09,08,17,12,75.10
2009,09,08,17,13,73.10
2009,09,08,17,14,70.90